Weather History for Culpeper, VA

Change the Weather History Date:

Saturday, March 23, 2013

  Actual Average (KOMH) Record (KOMH)
Temperature  
Mean Temperature 42 °F -  
Max Temperature 60 °F 56 °F 85 °F (1966)
Min Temperature 24 °F 34 °F 19 °F (2004)
Degree Days  
Heating Degree Days 23    
Moisture  
Dew Point 25 °F    
Average Humidity 54    
Maximum Humidity 100    
Minimum Humidity 22    
Precipitation  
Precipitation 0.00 in - - ()
Sea Level Pressure  
Sea Level Pressure 29.99 in    
Wind  
Wind Speed 1 mph (WNW)    
Max Wind Speed 10 mph    
Max Gust Speed -    
Visibility 10 miles    
Events      
Averages and records for this station are not official NWS values.
T = Trace of Precipitation, MM = Missing Value Source: NWS Daily Summary

Daily Weather History Graph

Daily Weather History Graph

Search for Another Location

Airport:

Trip Planner

Search our weather history database for the weather conditions in past years. The results will help you decide how hot, cold, wet, or windy it might be!

Date:

Astronomy

Mar. 23, 2013 Rise Set
Actual Time 7:09 AM EDT 7:26 PM EDT
Civil Twilight 6:43 AM EDT 7:53 PM EDT
Nautical Twilight 6:12 AM EDT 8:24 PM EDT
Astronomical Twilight 5:40 AM EDT 8:55 PM EDT
Moon 3:53 PM EDT (3/23) 4:42 AM EDT (3/23)
Length of Visible Light 13h 09m
Length of Day
12h 16m
Waxing Gibbous, 85% of the Moon is Illuminated
Mar 23
Waxing Gibbous
Mar 27
Full
Apr 3
Last Quarter
Apr 10
New
Apr 18
First Quarter

Hourly Weather History & Observations

Time (EDT) Temp. Windchill Dew Point Humidity Pressure Visibility Wind Dir Wind Speed Gust Speed Precip Events Conditions
12:15 AM 35.6 °F - 28.4 °F 75% 30.01 in 10.0 mi Calm Calm - N/A   Clear
12:35 AM 35.6 °F - 26.6 °F 70% 30.01 in 10.0 mi Calm Calm - N/A   Clear
12:55 AM 33.8 °F - 26.6 °F 75% 30.01 in 10.0 mi Calm Calm - N/A   Clear
1:15 AM 32.0 °F - 24.8 °F 75% 30.01 in 10.0 mi Calm Calm - N/A   Clear
1:35 AM 30.2 °F - 26.6 °F 86% 30.01 in 10.0 mi Calm Calm - N/A   Clear
1:55 AM 37.4 °F 34.9 °F 24.8 °F 60% 30.00 in 10.0 mi NNE 3.5 mph - N/A   Clear
2:15 AM 35.6 °F - 24.8 °F 65% 30.00 in 10.0 mi Calm Calm - N/A   Clear
2:35 AM 33.8 °F - 24.8 °F 70% 30.01 in 10.0 mi Calm Calm - N/A   Clear
2:55 AM 32.0 °F - 24.8 °F 75% 30.02 in 10.0 mi Calm Calm - N/A   Clear
3:15 AM 30.2 °F - 26.6 °F 86% 30.02 in 10.0 mi Calm Calm - N/A   Clear
3:35 AM 30.2 °F - 26.6 °F 86% 30.02 in 10.0 mi Calm Calm - N/A   Clear
3:55 AM 30.2 °F - 26.6 °F 86% 30.02 in 10.0 mi Calm Calm - N/A   Clear
4:35 AM 28.4 °F - 24.8 °F 86% 30.01 in 10.0 mi Calm Calm - N/A   Clear
4:55 AM 28.4 °F - 24.8 °F 86% 30.01 in 10.0 mi Calm Calm - N/A   Clear
5:15 AM 28.4 °F - 24.8 °F 86% 30.00 in 10.0 mi Calm Calm - N/A   Clear
5:35 AM 26.6 °F - 24.8 °F 93% 30.00 in 10.0 mi Calm Calm - N/A   Clear
5:55 AM 26.6 °F - 24.8 °F 93% 30.01 in 10.0 mi Calm Calm - N/A   Clear
6:15 AM 26.6 °F - 24.8 °F 93% 30.02 in 10.0 mi Calm Calm - N/A   Clear
6:55 AM 24.8 °F - 23.0 °F 93% 30.03 in 10.0 mi Calm Calm - N/A   Clear
7:15 AM 24.8 °F - 24.8 °F 100% 30.03 in 10.0 mi Calm Calm - N/A   Clear
7:35 AM 26.6 °F 21.2 °F 24.8 °F 93% 30.03 in 10.0 mi North 4.6 mph - N/A   Clear
7:55 AM 28.4 °F - 26.6 °F 93% 30.04 in 10.0 mi Calm Calm - N/A   Clear
8:15 AM 30.2 °F - 26.6 °F 86% 30.04 in 10.0 mi Calm Calm - N/A   Clear
8:35 AM 33.8 °F - 26.6 °F 75% 30.04 in 10.0 mi Calm Calm - N/A   Clear
8:55 AM 35.6 °F - 28.4 °F 75% 30.04 in 10.0 mi Calm Calm - N/A   Clear
9:15 AM 39.2 °F - 28.4 °F 65% 30.04 in 10.0 mi Calm Calm - N/A   Clear
9:35 AM 41.0 °F - 28.4 °F 61% 30.04 in 10.0 mi Calm Calm - N/A   Clear
9:55 AM 42.8 °F 38.6 °F 28.4 °F 57% 30.06 in 10.0 mi SW 6.9 mph - N/A   Clear
10:15 AM 44.6 °F 39.2 °F 28.4 °F 53% 30.06 in 10.0 mi SSW 10.4 mph - N/A   Clear
10:35 AM 46.4 °F 42.9 °F 28.4 °F 50% 30.06 in 10.0 mi SSW 6.9 mph - N/A   Clear
10:55 AM 46.4 °F 43.5 °F 26.6 °F 46% 30.05 in 10.0 mi SW 5.8 mph - N/A   Clear
11:15 AM 48.2 °F - 23.0 °F 37% 30.03 in 10.0 mi Calm Calm - N/A   Clear
11:35 AM 48.2 °F - 24.8 °F 40% 30.02 in 10.0 mi WNW 5.8 mph - N/A   Clear
11:55 AM 48.2 °F - 23.0 °F 37% 30.02 in 10.0 mi Calm Calm - N/A   Clear
12:15 PM 48.2 °F - 24.8 °F 40% 30.01 in 10.0 mi Calm Calm - N/A   Clear
12:35 PM 50.0 °F - 24.8 °F 37% 30.00 in 10.0 mi South 3.5 mph - N/A   Clear
12:55 PM 51.8 °F - 24.8 °F 35% 29.99 in 10.0 mi South 5.8 mph - N/A   Clear
1:15 PM 53.6 °F - 23.0 °F 30% 29.99 in 10.0 mi Calm Calm - N/A   Clear
1:35 PM 53.6 °F - 24.8 °F 33% 29.98 in 10.0 mi WSW 3.5 mph - N/A   Clear
1:55 PM 55.4 °F - 21.2 °F 26% 29.97 in 7.0 mi WSW 6.9 mph - N/A   Clear
2:15 PM 55.4 °F - 21.2 °F 26% 29.96 in 10.0 mi SW 4.6 mph - N/A   Clear
2:35 PM 55.4 °F - 23.0 °F 29% 29.95 in 10.0 mi SW 6.9 mph - N/A   Clear
2:55 PM 55.4 °F - 21.2 °F 26% 29.95 in 10.0 mi WNW 5.8 mph - N/A   Clear
3:15 PM 55.4 °F - 21.2 °F 26% 29.94 in 10.0 mi Calm Calm - N/A   Clear
3:35 PM 57.2 °F - 24.8 °F 29% 29.93 in 10.0 mi Calm Calm - N/A   Clear
3:55 PM 57.2 °F - 23.0 °F 27% 29.93 in 10.0 mi Calm Calm - N/A   Clear
4:15 PM 57.2 °F - 23.0 °F 27% 29.92 in 10.0 mi Calm Calm - N/A   Clear
4:35 PM 59.0 °F - 24.8 °F 27% 29.92 in 10.0 mi SSW 3.5 mph - N/A   Clear
4:55 PM 59.0 °F - 21.2 °F 23% 29.92 in 10.0 mi West 4.6 mph - N/A   Clear
5:15 PM 60.8 °F - 21.2 °F 22% 29.92 in 10.0 mi NNW 5.8 mph - N/A   Clear
5:35 PM 60.8 °F - 21.2 °F 22% 29.91 in 10.0 mi NW 5.8 mph - N/A   Clear
5:55 PM 59.0 °F - 19.4 °F 22% 29.91 in 10.0 mi NNW 5.8 mph - N/A   Clear
6:15 PM 59.0 °F - 19.4 °F 22% 29.91 in 10.0 mi NNW 4.6 mph - N/A   Clear
6:35 PM 57.2 °F - 21.2 °F 25% 29.91 in 10.0 mi North 5.8 mph - N/A   Clear
6:55 PM 57.2 °F - 23.0 °F 27% 29.91 in 10.0 mi North 4.6 mph - N/A   Clear
7:15 PM 55.4 °F - 21.2 °F 26% 29.92 in 10.0 mi NNW 4.6 mph - N/A   Clear
7:35 PM 53.6 °F - 21.2 °F 28% 29.93 in 10.0 mi Calm Calm - N/A   Clear
7:55 PM 50.0 °F - 21.2 °F 32% 29.93 in 10.0 mi Calm Calm - N/A   Clear
8:15 PM 48.2 °F - 21.2 °F 34% 29.95 in 10.0 mi NE 4.6 mph - N/A   Clear
8:35 PM 48.2 °F - 24.8 °F 40% 29.95 in 10.0 mi North 5.8 mph - N/A   Clear
8:55 PM 48.2 °F - 24.8 °F 40% 29.96 in 10.0 mi North 4.6 mph - N/A   Clear
9:15 PM 46.4 °F - 24.8 °F 43% 29.97 in 10.0 mi Calm Calm - N/A   Clear
9:35 PM 44.6 °F - 28.4 °F 53% 29.97 in 10.0 mi Calm Calm - N/A   Clear
9:55 PM 42.8 °F - 28.4 °F 57% 29.97 in 10.0 mi Calm Calm - N/A   Clear
10:15 PM 41.0 °F - 28.4 °F 61% 29.99 in 10.0 mi Calm Calm - N/A   Clear
10:35 PM 41.0 °F 39.0 °F 26.6 °F 57% 29.98 in 10.0 mi North 3.5 mph - N/A   Clear
10:55 PM 42.8 °F - 26.6 °F 53% 29.98 in 10.0 mi Calm Calm - N/A   Clear
11:15 PM 42.8 °F - 28.4 °F 57% 29.99 in 10.0 mi Calm Calm - N/A   Clear
11:35 PM 37.4 °F - 28.4 °F 70% 29.99 in 10.0 mi Calm Calm - N/A   Clear
11:55 PM 39.2 °F - 28.4 °F 65% 29.99 in 10.0 mi Calm Calm - N/A   Clear